Weather History for Land O' Lakes, WI

Change the Weather History Date:

Thursday, October 11, 2012

  Actual Average (KEGV) Record (KEGV)
Temperature  
Mean Temperature 36 °F -  
Max Temperature 41 °F 53 °F 72 °F (2008)
Min Temperature 30 °F 30 °F 26 °F (2000)
Degree Days  
Heating Degree Days 30    
Moisture  
Dew Point 31 °F    
Average Humidity 89    
Maximum Humidity 100    
Minimum Humidity 57    
Precipitation  
Precipitation 0.10 in - - ()
Sea Level Pressure  
Sea Level Pressure 30.02 in    
Wind  
Wind Speed 4 mph (WNW)    
Max Wind Speed 16 mph    
Max Gust Speed 25 mph    
Visibility 7 miles    
Events Snow    
Averages and records for this station are not official NWS values.
T = Trace of Precipitation, MM = Missing Value Source: NWS Daily Summary

Daily Weather History Graph

Daily Weather History Graph

Search for Another Location

Airport:

Trip Planner

Search our weather history database for the weather conditions in past years. The results will help you decide how hot, cold, wet, or windy it might be!

Date:

Astronomy

Oct. 11, 2012 Rise Set
Actual Time 7:09 AM CDT 6:16 PM CDT
Civil Twilight 6:39 AM CDT 6:46 PM CDT
Nautical Twilight 6:04 AM CDT 7:21 PM CDT
Astronomical Twilight 5:29 AM CDT 7:56 PM CDT
Moon 2:34 AM CDT (10/11) 4:04 PM CDT (10/11)
Length of Visible Light 12h 07m
Length of Day
11h 07m
Waning Crescent, 18% of the Moon is Illuminated
Oct 11
Waning Crescent
Oct 15
New
Oct 21
First Quarter
Oct 29
Full
Nov 6
Last Quarter

Hourly Weather History & Observations

Time (CDT) Temp. Windchill Dew Point Humidity Pressure Visibility Wind Dir Wind Speed Gust Speed Precip Events Conditions
12:15 AM 33.8 °F 29.6 °F 28.4 °F 81% 29.95 in 10.0 mi SW 4.6 mph - N/A   Overcast
12:35 AM 33.8 °F 30.8 °F 32.0 °F 93% 29.95 in 1.8 mi SW 3.5 mph - N/A Snow Light Snow
12:55 AM 32.0 °F - 32.0 °F 100% 29.94 in 2.0 mi Calm Calm - N/A Snow Light Snow
1:15 AM 32.0 °F - 32.0 °F 100% 29.94 in 1.8 mi Calm Calm - N/A Snow Light Snow
1:35 AM 32.0 °F - 32.0 °F 100% 29.94 in 1.0 mi Calm Calm - N/A Snow Snow
2:15 AM 32.0 °F - 32.0 °F 100% 29.93 in 2.0 mi Calm Calm - N/A Snow Light Snow
2:35 AM 32.0 °F - 32.0 °F 100% 29.91 in 3.0 mi Calm Calm - N/A Snow Light Snow
2:55 AM 32.0 °F - 32.0 °F 100% 29.89 in 4.0 mi Calm Calm - N/A Snow Light Snow
3:15 AM 32.0 °F - 32.0 °F 100% 29.88 in 2.0 mi Calm Calm - N/A Snow Light Snow
3:35 AM 32.0 °F - 32.0 °F 100% 29.86 in 3.0 mi Calm Calm - N/A Snow Light Snow
3:55 AM 32.0 °F - 32.0 °F 100% 29.87 in 1.5 mi Calm Calm - N/A Snow Light Snow
4:15 AM 32.0 °F - 32.0 °F 100% 29.86 in 1.2 mi Calm Calm - N/A Snow Light Snow
4:35 AM 32.0 °F - 32.0 °F 100% 29.85 in 3.0 mi Calm Calm - N/A Snow Light Snow
4:55 AM 32.0 °F - 32.0 °F 100% 29.85 in 3.0 mi Calm Calm - N/A Snow Light Snow
5:35 AM 33.8 °F - 32.0 °F 93% 29.85 in 5.0 mi Calm Calm - N/A   Overcast
5:55 AM 33.8 °F - 32.0 °F 93% 29.85 in 5.0 mi Calm Calm - N/A   Overcast
6:15 AM 32.0 °F - 32.0 °F 100% 29.85 in 4.0 mi Calm Calm - N/A   Overcast
6:35 AM 32.0 °F - 32.0 °F 100% 29.86 in 5.0 mi Calm Calm - N/A   Overcast
6:55 AM 32.0 °F - 32.0 °F 100% 29.87 in 4.0 mi Calm Calm - N/A Snow Light Snow
7:35 AM 33.8 °F - 32.0 °F 93% 29.87 in 5.0 mi Calm Calm - N/A   Overcast
7:55 AM 33.8 °F 29.6 °F 33.8 °F 100% 29.87 in 7.0 mi NW 4.6 mph - N/A   Overcast
8:15 AM 33.8 °F 28.6 °F 32.0 °F 93% 29.89 in 10.0 mi NW 5.8 mph - N/A   Overcast
8:35 AM 33.8 °F 27.7 °F 32.0 °F 93% 29.90 in 10.0 mi NW 6.9 mph - N/A   Overcast
9:35 AM 33.8 °F 28.6 °F 32.0 °F 93% 29.93 in 10.0 mi WNW 5.8 mph - N/A   Overcast
9:55 AM 33.8 °F 29.6 °F 32.0 °F 93% 29.94 in 10.0 mi WNW 4.6 mph - 0.03 in   Overcast
10:15 AM 35.6 °F 29.9 °F 32.0 °F 87% 29.95 in 10.0 mi WNW 6.9 mph - 0.05 in   Overcast
10:35 AM 35.6 °F 29.9 °F 32.0 °F 87% 29.96 in 10.0 mi NW 6.9 mph - 0.07 in   Overcast
10:55 AM 35.6 °F 29.9 °F 32.0 °F 87% 29.97 in 10.0 mi NNW 6.9 mph 16.1 mph 0.07 in   Overcast
11:15 AM 35.6 °F 28.0 °F 32.0 °F 87% 29.98 in 10.0 mi NW 10.4 mph 17.3 mph N/A   Overcast
11:35 AM 35.6 °F 29.9 °F 32.0 °F 87% 29.99 in 10.0 mi WNW 6.9 mph - N/A   Overcast
11:55 AM 33.8 °F 27.0 °F 32.0 °F 93% 30.00 in 1.2 mi NW 8.1 mph 16.1 mph N/A Snow Light Snow
12:35 PM 37.4 °F 30.3 °F 32.0 °F 81% 30.01 in 10.0 mi NW 10.4 mph 17.3 mph N/A   Mostly Cloudy
12:55 PM 37.4 °F 29.8 °F 32.0 °F 81% 30.01 in 10.0 mi WNW 11.5 mph 18.4 mph N/A   Mostly Cloudy
1:15 PM 37.4 °F 32.1 °F 30.2 °F 75% 30.01 in 10.0 mi WNW 6.9 mph 17.3 mph N/A   Mostly Cloudy
1:35 PM 37.4 °F 29.3 °F 30.2 °F 75% 30.02 in 10.0 mi NW 12.7 mph 18.4 mph N/A   Mostly Cloudy
1:55 PM 37.4 °F 30.3 °F 30.2 °F 75% 30.03 in 10.0 mi NW 10.4 mph 21.9 mph N/A   Overcast
2:15 PM 37.4 °F 30.3 °F 30.2 °F 75% 30.04 in 10.0 mi NNW 10.4 mph 19.6 mph N/A   Overcast
2:35 PM 37.4 °F 29.8 °F 30.2 °F 75% 30.05 in 10.0 mi NW 11.5 mph 17.3 mph N/A   Overcast
3:15 PM 41.0 °F 35.2 °F 28.4 °F 61% 30.06 in 10.0 mi WNW 9.2 mph 17.3 mph N/A   Scattered Clouds
3:35 PM 41.0 °F 32.8 °F 26.6 °F 57% 30.08 in 10.0 mi WNW 16.1 mph 25.3 mph N/A   Mostly Cloudy
3:55 PM 37.4 °F 28.2 °F 26.6 °F 65% 30.10 in 10.0 mi NW 16.1 mph 21.9 mph N/A   Overcast
4:15 PM 37.4 °F 31.4 °F 26.6 °F 65% 30.10 in 10.0 mi WNW 8.1 mph 20.7 mph N/A   Overcast
4:35 PM 37.4 °F 28.9 °F 26.6 °F 65% 30.11 in 10.0 mi NW 13.8 mph 19.6 mph N/A   Overcast
4:55 PM 35.6 °F 28.6 °F 26.6 °F 70% 30.11 in 10.0 mi WNW 9.2 mph 18.4 mph N/A   Overcast
5:15 PM 35.6 °F 29.2 °F 26.6 °F 70% 30.12 in 10.0 mi WNW 8.1 mph - N/A   Overcast
5:35 PM 35.6 °F 29.9 °F 26.6 °F 70% 30.13 in 10.0 mi WNW 6.9 mph - N/A   Mostly Cloudy
6:35 PM 35.6 °F 26.2 °F 28.4 °F 75% 30.17 in 10.0 mi NW 15.0 mph 20.7 mph N/A   Mostly Cloudy
6:55 PM 32.0 °F 25.6 °F 30.2 °F 93% 30.17 in 2.0 mi WNW 6.9 mph 17.3 mph N/A Snow Light Snow
7:15 PM 32.0 °F 25.6 °F 32.0 °F 100% 30.18 in 10.0 mi West 6.9 mph - N/A   Mostly Cloudy
7:35 PM 32.0 °F 27.5 °F 30.2 °F 93% 30.19 in 10.0 mi WNW 4.6 mph - N/A   Scattered Clouds
8:15 PM 32.0 °F 28.7 °F 30.2 °F 93% 30.20 in 10.0 mi West 3.5 mph - N/A   Clear
8:35 PM 32.0 °F 27.5 °F 30.2 °F 93% 30.21 in 10.0 mi West 4.6 mph - N/A   Clear
8:55 PM 32.0 °F 25.6 °F 30.2 °F 93% 30.22 in 10.0 mi WNW 6.9 mph - N/A   Clear
9:15 PM 32.0 °F 27.5 °F 30.2 °F 93% 30.22 in 10.0 mi WNW 4.6 mph - N/A   Clear
10:15 PM 32.0 °F 28.7 °F 30.2 °F 93% 30.24 in 10.0 mi WNW 3.5 mph - N/A   Clear
10:35 PM 32.0 °F - 30.2 °F 93% 30.25 in 10.0 mi Calm Calm - N/A   Clear
10:55 PM 30.2 °F 26.7 °F 30.2 °F 100% 30.25 in 10.0 mi West 3.5 mph - N/A   Clear
11:15 PM 30.2 °F 26.7 °F 30.2 °F 100% 30.26 in 10.0 mi West 3.5 mph - N/A   Clear
11:35 PM 32.0 °F 28.7 °F 30.2 °F 93% 30.27 in 10.0 mi WNW 3.5 mph - N/A   Mostly Cloudy